Terug naar catalogus

RCM 3

ActiefWetenschapSSO
NORAD 44323·PAYLOAD·🇨🇦 Canada

Gelanceerd Jun 12, 2019 vanaf Vandenberg Space Force Base

Loading…

Volgende Passages (komende 24 uur)

TLE

VersSource: Space-Track

Epoch: Sep 14, 2026, 14:05 UTC

1 44323U 19033B   26257.58742984  .00000498  00000-0  53804-4 0  9996
2 44323  97.7600 263.8650 0001506  89.0536 271.0855 14.92591230395438

Volg RCM 3 in realtime met AllMySat

Download on the App Store